Weather History for Wisconsin Rapids, WI

Change the Weather History Date:

Thursday, March 7, 2013

  Actual Average Record
Temperature  
Mean Temperature 19 °F -  
Max Temperature 35 °F 36 °F 72 °F (1987)
Min Temperature 3 °F 15 °F -12 °F (1959)
Degree Days  
Heating Degree Days 46    
Moisture  
Dew Point 10 °F    
Average Humidity 67    
Maximum Humidity 95    
Minimum Humidity 40    
Precipitation  
Precipitation 0.00 in - - ()
Sea Level Pressure  
Sea Level Pressure 30.42 in    
Wind  
Wind Speed 2 mph (East)    
Max Wind Speed 7 mph    
Max Gust Speed -    
Visibility 10 miles    
Events      
Averages and records for this station are not official NWS values.
T = Trace of Precipitation, MM = Missing Value Source: NWS Daily Summary

Daily Weather History Graph

Daily Weather History Graph

Search for Another Location

Airport:

Trip Planner

Search our weather history database for the weather conditions in past years. The results will help you decide how hot, cold, wet, or windy it might be!

Date:

Astronomy

Mar. 07, 2013 Rise Set
Actual Time 6:25 AM CST 5:55 PM CST
Civil Twilight 5:56 AM CST 6:24 PM CST
Nautical Twilight 5:23 AM CST 6:58 PM CST
Astronomical Twilight 4:49 AM CST 7:32 PM CST
Moon 3:33 AM CST (3/7) 1:35 PM CST (3/7)
Length of Visible Light 12h 27m
Length of Day
11h 30m
Waning Crescent, 20% of the Moon is Illuminated
Mar 7
Waning Crescent
Mar 11
New
Mar 19
First Quarter
Mar 27
Full
Apr 2
Last Quarter

Hourly Weather History & Observations

Time (CST) Temp. Windchill Dew Point Humidity Pressure Visibility Wind Dir Wind Speed Gust Speed Precip Events Conditions
12:01 AM 12.2 °F - 6.8 °F 79% 30.30 in 10.0 mi Calm Calm - N/A   Clear
12:54 AM 10.9 °F - 7.0 °F 84% 30.38 in 10.0 mi Calm Calm - N/A   Clear
1:54 AM 8.1 °F - 3.9 °F 83% 30.40 in 6.0 mi Calm Calm - N/A   Clear
2:54 AM 10.9 °F 4.7 °F 7.0 °F 84% 30.38 in 10.0 mi NNE 3.5 mph - N/A   Clear
3:54 AM 8.1 °F - 3.9 °F 83% 30.40 in 10.0 mi Calm Calm - N/A   Clear
4:54 AM 7.0 °F - 1.9 °F 80% 30.41 in 10.0 mi Calm Calm - N/A   Clear
5:54 AM 5.0 °F - -0.9 °F 76% 30.42 in 10.0 mi Calm Calm - N/A   Clear
6:54 AM 3.9 °F - -0.9 °F 80% 30.45 in 10.0 mi Calm Calm - N/A   Clear
7:54 AM 10.0 °F 3.6 °F 9.0 °F 95% 30.45 in 10.0 mi North 3.5 mph - N/A   Clear
8:54 AM 19.9 °F 13.4 °F 14.0 °F 78% 30.46 in 10.0 mi NE 4.6 mph - N/A   Clear
9:54 AM 24.1 °F 17.0 °F 14.0 °F 65% 30.45 in 10.0 mi East 5.8 mph - 0.00 in   Clear
10:54 AM 28.0 °F - 14.0 °F 56% 30.45 in 10.0 mi Calm Calm - N/A   Clear
11:54 AM 30.9 °F 26.2 °F 14.0 °F 50% 30.44 in 10.0 mi NNE 4.6 mph - N/A   Clear
12:54 PM 33.1 °F - 12.9 °F 43% 30.43 in 10.0 mi Calm Calm - N/A   Clear
1:54 PM 34.0 °F - 12.9 °F 42% 30.42 in 10.0 mi Calm Calm - N/A   Clear
2:54 PM 35.1 °F 32.2 °F 12.9 °F 40% 30.41 in 10.0 mi North 3.5 mph - N/A   Clear
3:54 PM 32.0 °F 27.5 °F 15.1 °F 50% 30.40 in 10.0 mi Variable 4.6 mph - N/A   Clear
4:54 PM 30.9 °F 24.3 °F 14.0 °F 50% 30.42 in 10.0 mi East 6.9 mph - N/A   Clear
5:54 PM 28.9 °F - 12.9 °F 51% 30.43 in 10.0 mi Calm Calm - N/A   Clear
6:54 PM 24.1 °F - 14.0 °F 65% 30.44 in 10.0 mi Calm Calm - N/A   Clear
7:54 PM 24.1 °F 18.2 °F 12.0 °F 60% 30.45 in 10.0 mi SE 4.6 mph - N/A   Clear
8:54 PM 24.1 °F 17.0 °F 12.9 °F 62% 30.43 in 10.0 mi SE 5.8 mph - N/A   Clear
9:54 PM 23.0 °F 15.8 °F 14.0 °F 68% 30.44 in 10.0 mi SSE 5.8 mph - N/A   Clear
10:54 PM 21.0 °F 13.4 °F 12.9 °F 71% 30.44 in 10.0 mi SE 5.8 mph - N/A   Clear
11:54 PM 21.0 °F 14.6 °F 12.0 °F 68% 30.45 in 10.0 mi SE 4.6 mph - N/A   Clear